GW6288 Weather Reports


time (UTC)temp
C
wind
direction
speed
KPH
gust
KPH
rain 1hr
cm
rain 24hr
cm
rain mn
cm
humidity
%
barometer
mb
20260508064751 13 186 0.0 1.6 0.00 0.00 0.00 22 1017.8
20260508064249 13 135 3.2 4.8 0.00 0.00 0.00 22 1017.9
20260508063746 13 114 3.2 4.8 0.00 0.00 0.00 24 1017.8
20260508063244 13 136 1.6 1.6 0.00 0.00 0.00 25 1018.0
20260508062741 13 147 0.0 0.0 0.00 0.00 0.00 26 1017.9
20260508062239 13 195 0.0 0.0 0.00 0.00 0.00 26 1018.0
20260508061735 13 197 1.6 1.6 0.00 0.00 0.00 25 1018.0
20260508061232 13 196 4.8 4.8 0.00 0.00 0.00 24 1017.8
20260508060729 14 195 0.0 0.0 0.00 0.00 0.00 24 1017.8
20260508060227 15 127 1.6 1.6 0.00 0.00 0.00 21 1017.9
20260508055722 15 140 0.0 0.0 0.00 0.00 0.00 21 1017.6
20260508055219 15 133 0.0 1.6 0.00 0.00 0.00 21 1017.6
20260508054715 15 131 1.6 3.2 0.00 0.00 0.00 21 1017.6
20260508054214 15 152 1.6 3.2 0.00 0.00 0.00 21 1017.7
20260508053710 15 124 3.2 4.8 0.00 0.00 0.00 21 1017.8
20260508053208 15 109 3.2 3.2 0.00 0.00 0.00 22 1017.6
20260508052705 15 118 3.2 3.2 0.00 0.00 0.00 22 1017.8
20260508052202 15 164 1.6 1.6 0.00 0.00 0.00 22 1017.7
20260508051658 15 183 3.2 3.2 0.00 0.00 0.00 22 1017.9
20260508051154 15 165 1.6 3.2 0.00 0.00 0.00 23 1018.0
20260508050650 15 166 1.6 1.6 0.00 0.00 0.00 22 1017.8
20260508050148 15 164 0.0 0.0 0.00 0.00 0.00 22 1018.0
20260508045643 15 115 3.2 3.2 0.00 0.00 0.00 21 1017.9
20260508045141 14 155 0.0 0.0 0.00 0.00 0.00 24 1017.7
20260508044638 15 158 0.0 0.0 0.00 0.00 0.00 24 1017.6
20260508044134 15 161 0.0 0.0 0.00 0.00 0.00 24 1017.7
20260508043631 15 165 0.0 0.0 0.00 0.00 0.00 23 1017.7
20260508043129 15 154 1.6 1.6 0.00 0.00 0.00 23 1017.7
20260508042625 16 160 0.0 0.0 0.00 0.00 0.00 22 1017.7
20260508042123 16 160 0.0 1.6 0.00 0.00 0.00 21 1017.6
20260508041618 16 258 3.2 3.2 0.00 0.00 0.00 20 1017.7
20260508041115 17 169 0.0 1.6 0.00 0.00 0.00 20 1017.7
20260508040612 16 130 3.2 3.2 0.00 0.00 0.00 18 1017.7
20260508040110 17 207 1.6 1.6 0.00 0.00 0.00 18 1017.6
20260508035607 16 180 0.0 0.0 0.00 0.00 0.00 17 1017.6
20260508035104 17 156 0.0 1.6 0.00 0.00 0.00 18 1017.5
20260508034601 17 179 0.0 0.0 0.00 0.00 0.00 16 1017.3
20260508034058 18 183 0.0 0.0 0.00 0.00 0.00 15 1017.6
20260508033555 18 184 0.0 0.0 0.00 0.00 0.00 14 1017.1
20260508033054 18 308 3.2 3.2 0.00 0.00 0.00 13 1017.1
20260508032549 18 198 1.6 1.6 0.00 0.00 0.00 13 1017.0
20260508032047 18 188 0.0 0.0 0.00 0.00 0.00 14 1016.9
20260508031544 18 181 0.0 0.0 0.00 0.00 0.00 14 1016.8
20260508031040 18 180 0.0 0.0 0.00 0.00 0.00 15 1016.8
20260508030537 18 174 0.0 0.0 0.00 0.00 0.00 15 1016.6
20260508030035 18 192 0.0 0.0 0.00 0.00 0.00 14 1016.5
20260508025530 20 186 0.0 0.0 0.00 0.00 0.00 15 1016.5
20260508025028 20 183 0.0 0.0 0.00 0.00 0.00 15 1016.4
20260508024524 20 176 0.0 0.0 0.00 0.00 0.00 15 1016.5
20260508024021 20 205 1.6 3.2 0.00 0.00 0.00 14 1016.2
20260508023517 20 195 3.2 3.2 0.00 0.00 0.00 14 1016.1
20260508023015 20 200 1.6 3.2 0.00 0.00 0.00 15 1016.3
20260508022510 20 231 1.6 3.2 0.00 0.00 0.00 16 1016.3
20260508022007 20 191 0.0 0.0 0.00 0.00 0.00 15 1015.9
20260508021503 20 166 0.0 1.6 0.00 0.00 0.00 15 1015.8
20260508020959 21 188 0.0 0.0 0.00 0.00 0.00 14 1015.9
20260508020457 21 224 4.8 4.8 0.00 0.00 0.00 14 1015.8
20260508015954 21 189 3.2 4.8 0.00 0.00 0.00 14 1015.8
20260508015452 22 178 3.2 3.2 0.00 0.00 0.00 13 1015.7
20260508014948 22 185 8.0 9.7 0.00 0.00 0.00 13 1015.8
20260508014445 22 195 8.0 9.7 0.00 0.00 0.00 13 1015.8
20260508013941 22 209 9.7 11.3 0.00 0.00 0.00 13 1015.4
20260508013437 22 196 4.8 6.4 0.00 0.00 0.00 13 1015.5
20260508012935 22 213 6.4 6.4 0.00 0.00 0.00 13 1015.4
20260508012431 22 174 6.4 11.3 0.00 0.00 0.00 13 1015.4
20260508011929 23 191 3.2 3.2 0.00 0.00 0.00 13 1015.4
20260508011427 23 208 4.8 4.8 0.00 0.00 0.00 13 1015.2
20260508010924 23 196 3.2 4.8 0.00 0.00 0.00 13 1015.4
20260508010421 23 185 14.5 16.1 0.00 0.00 0.00 12 1015.0
20260508005918 23 204 4.8 6.4 0.00 0.00 0.00 12 1015.4
20260508005415 23 187 6.4 6.4 0.00 0.00 0.00 12 1015.2
20260508004911 23 199 8.0 9.7 0.00 0.00 0.00 12 1015.2
20260508004407 23 212 9.7 11.3 0.00 0.00 0.00 11 1015.2
20260508003904 23 218 9.7 11.3 0.00 0.00 0.00 12 1015.0
20260508003401 23 182 4.8 4.8 0.00 0.00 0.00 11 1015.1
20260508002858 23 198 9.7 11.3 0.00 0.00 0.00 11 1015.1
20260508002354 23 220 12.9 12.9 0.00 0.00 0.00 11 1015.1
20260508001851 23 190 11.3 12.9 0.00 0.00 0.00 11 1015.1
20260508001347 23 172 3.2 3.2 0.00 0.00 0.00 11 1015.4
20260508000843 23 155 6.4 9.7 0.00 0.00 0.00 11 1015.4
20260508000342 23 172 11.3 14.5 0.00 0.00 0.00 11 1015.2
20260507235836 23 191 14.5 16.1 0.00 0.00 0.00 11 1015.4
20260507235334 23 186 6.4 9.7 0.00 0.00 0.00 11 1015.5
20260507234831 23 183 9.7 9.7 0.00 0.00 0.00 11 1015.4
20260507234328 24 178 9.7 12.9 0.00 0.00 0.00 11 1015.4
20260507233824 24 183 6.4 9.7 0.00 0.00 0.00 11 1015.5
20260507233322 24 185 6.4 6.4 0.00 0.00 0.00 10 1015.4
20260507232820 24 181 6.4 9.7 0.00 0.00 0.00 10 1015.5
20260507232316 23 184 6.4 9.7 0.00 0.00 0.00 11 1015.6
20260507231813 23 199 6.4 9.7 0.00 0.00 0.00 11 1015.8
20260507231310 25 255 8.0 9.7 0.00 0.00 0.00 10 1015.9
20260507230806 24 185 6.4 11.3 0.00 0.00 0.00 11 1015.8
20260507230303 24 218 9.7 12.9 0.00 0.00 0.00 10 1015.8
20260507225803 25 203 4.8 4.8 0.00 0.00 0.00 10 1015.9
20260507225259 25 199 12.9 16.1 0.00 0.00 0.00 11 1015.9
20260507224755 23 183 4.8 4.8 0.00 0.00 0.00 11 1015.9
20260507224253 23 202 6.4 9.7 0.00 0.00 0.00 11 1016.1
20260507223749 23 169 4.8 4.8 0.00 0.00 0.00 11 1016.1
20260507223246 23 139 8.0 9.7 0.00 0.00 0.00 12 1016.1
20260507222743 23 209 3.2 3.2 0.00 0.00 0.00 12 1016.5
20260507222238 23 156 6.4 9.7 0.00 0.00 0.00 12 1016.4
20260507221736 23 190 9.7 11.3 0.00 0.00 0.00 12 1016.5
20260507221232 23 199 1.6 3.2 0.00 0.00 0.00 13 1016.8
20260507220728 23 190 0.0 0.0 0.00 0.00 0.00 12 1016.6
20260507220227 23 160 6.4 6.4 0.00 0.00 0.00 13 1016.9
20260507215722 23 147 6.4 9.7 0.00 0.00 0.00 13 1017.0
20260507215220 23 165 1.6 3.2 0.00 0.00 0.00 13 1016.9
20260507214717 23 248 6.4 6.4 0.00 0.00 0.00 13 1017.2
20260507214214 22 223 6.4 9.7 0.00 0.00 0.00 14 1016.9
20260507213709 23 251 6.4 9.7 0.00 0.00 0.00 14 1017.2
20260507213207 22 167 3.2 6.4 0.00 0.00 0.00 14 1017.5
20260507212703 22 209 4.8 6.4 0.00 0.00 0.00 14 1017.5
20260507212200 23 154 3.2 3.2 0.00 0.00 0.00 14 1017.6
20260507211657 22 172 1.6 4.8 0.00 0.00 0.00 13 1017.6
20260507211152 22 182 3.2 4.8 0.00 0.00 0.00 14 1017.8
20260507210650 22 222 12.9 14.5 0.00 0.00 0.00 15 1017.9
20260507210146 22 152 4.8 6.4 0.00 0.00 0.00 16 1018.0
20260507205643 22 213 8.0 9.7 0.00 0.00 0.00 15 1018.3
20260507205140 22 192 0.0 1.6 0.00 0.00 0.00 15 1018.4
20260507204636 22 219 6.4 9.7 0.00 0.00 0.00 16 1018.4
20260507204134 21 189 1.6 3.2 0.00 0.00 0.00 16 1018.5
20260507203631 22 167 9.7 12.9 0.00 0.00 0.00 16 1018.6
20260507203129 21 203 4.8 6.4 0.00 0.00 0.00 17 1018.7
20260507202624 21 213 9.7 11.3 0.00 0.00 0.00 17 1018.7
20260507202121 21 209 4.8 9.7 0.00 0.00 0.00 18 1018.9
20260507201616 21 185 4.8 4.8 0.00 0.00 0.00 17 1019.0
20260507201113 21 182 3.2 3.2 0.00 0.00 0.00 17 1019.0
20260507200608 21 191 3.2 4.8 0.00 0.00 0.00 17 1019.2
20260507200105 20 191 3.2 4.8 0.00 0.00 0.00 17 1019.4
20260507195602 21 176 8.0 11.3 0.00 0.00 0.00 17 1019.6
20260507195059 20 186 8.0 9.7 0.00 0.00 0.00 18 1019.2
20260507194555 20 182 9.7 11.3 0.00 0.00 0.00 18 1019.4
20260507194051 20 209 1.6 1.6 0.00 0.00 0.00 18 1019.6
20260507193549 20 72 6.4 6.4 0.00 0.00 0.00 18 1019.6
20260507193046 21 199 4.8 6.4 0.00 0.00 0.00 17 1019.7
20260507192542 19 167 1.6 1.6 0.00 0.00 0.00 19 1019.7
20260507192039 19 36 6.4 6.4 0.00 0.00 0.00 19 1020.0
20260507191534 20 285 6.4 9.7 0.00 0.00 0.00 18 1020.1
20260507191032 20 118 4.8 9.7 0.00 0.00 0.00 18 1020.3
20260507190529 20 238 3.2 3.2 0.00 0.00 0.00 18 1020.4
20260507190027 18 93 3.2 3.2 0.00 0.00 0.00 19 1020.3
20260507185526 19 316 1.6 3.2 0.00 0.00 0.00 19 1020.5
20260507185021 19 151 0.0 1.6 0.00 0.00 0.00 18 1020.6
20260507184520 18 197 3.2 3.2 0.00 0.00 0.00 19 1020.5
20260507184018 19 180 0.0 0.0 0.00 0.00 0.00 17 1020.7
20260507183513 18 188 0.0 1.6 0.00 0.00 0.00 21 1020.8
20260507183011 17 330 3.2 3.2 0.00 0.00 0.00 22 1021.0
20260507182507 17 110 3.2 3.2 0.00 0.00 0.00 23 1021.2
20260507182003 18 190 3.2 4.8 0.00 0.00 0.00 21 1021.4
20260507181500 17 181 1.6 3.2 0.00 0.00 0.00 23 1021.3
20260507180956 18 70 3.2 3.2 0.00 0.00 0.00 21 1021.2
20260507180452 17 168 0.0 0.0 0.00 0.00 0.00 23 1021.5
20260507175948 18 208 3.2 4.8 0.00 0.00 0.00 24 1021.3
20260507175446 17 213 1.6 3.2 0.00 0.00 0.00 24 1021.8
20260507174943 17 164 1.6 3.2 0.00 0.00 0.00 23 1021.9
20260507174440 18 170 1.6 3.2 0.00 0.00 0.00 23 1021.8
20260507173937 17 174 3.2 3.2 0.00 0.00 0.00 24 1022.0
20260507173434 16 203 1.6 1.6 0.00 0.00 0.00 26 1021.9
20260507172931 17 310 6.4 6.4 0.00 0.00 0.00 25 1022.0
20260507172428 16 173 0.0 1.6 0.00 0.00 0.00 25 1022.0
20260507171924 16 42 3.2 3.2 0.00 0.00 0.00 26 1022.2
20260507171420 16 43 3.2 3.2 0.00 0.00 0.00 27 1022.2
20260507170918 15 356 4.8 6.4 0.00 0.00 0.00 28 1022.4
20260507170414 15 281 6.4 6.4 0.00 0.00 0.00 31 1022.7
20260507165910 15 217 1.6 3.2 0.00 0.00 0.00 32 1022.4
20260507165406 16 334 6.4 6.4 0.00 0.00 0.00 31 1022.5
20260507164902 15 280 6.4 6.4 0.00 0.00 0.00 33 1022.5
20260507164400 15 257 4.8 4.8 0.00 0.00 0.00 34 1022.5
20260507163857 15 49 4.8 4.8 0.00 0.00 0.00 33 1022.6
20260507163354 15 184 3.2 3.2 0.00 0.00 0.00 36 1022.6
20260507162851 15 190 3.2 4.8 0.00 0.00 0.00 36 1022.8
20260507162346 13 339 4.8 4.8 0.00 0.00 0.00 38 1022.8
20260507161843 13 34 6.4 9.7 0.00 0.00 0.00 37 1022.8
20260507161340 13 44 6.4 6.4 0.00 0.00 0.00 38 1023.1
20260507160836 14 31 4.8 4.8 0.00 0.00 0.00 38 1022.7
20260507160332 13 274 4.8 4.8 0.00 0.00 0.00 40 1022.9
20260507155829 13 292 3.2 4.8 0.00 0.00 0.00 40 1022.8
20260507155325 12 32 3.2 3.2 0.00 0.00 0.00 43 1022.9
20260507154821 13 357 3.2 6.4 0.00 0.00 0.00 42 1022.9
20260507154319 12 303 4.8 4.8 0.00 0.00 0.00 44 1023.1
20260507153815 12 25 12.9 14.5 0.00 0.00 0.00 44 1023.3
20260507153312 11 315 6.4 6.4 0.00 0.00 0.00 49 1023.1
20260507152808 11 90 8.0 9.7 0.00 0.00 0.00 47 1023.2
20260507152306 11 258 6.4 11.3 0.00 0.00 0.00 49 1023.3
20260507151800 11 42 3.2 3.2 0.00 0.00 0.00 51 1023.2
20260507151257 11 320 6.4 9.7 0.00 0.00 0.00 52 1023.5
20260507150754 10 46 3.2 4.8 0.00 0.00 0.00 54 1023.4
20260507150251 10 51 4.8 6.4 0.00 0.00 0.00 55 1023.4
20260507145747 10 9 6.4 9.7 0.00 0.00 0.00 55 1023.5
20260507145243 10 29 8.0 12.9 0.00 0.00 0.00 57 1023.6
20260507144741 10 81 3.2 3.2 0.00 0.00 0.00 58 1023.5
20260507144238 9 356 9.7 12.9 0.00 0.00 0.00 59 1023.8
20260507143735 9 17 8.0 11.3 0.00 0.00 0.00 59 1023.8
20260507143232 9 39 8.0 9.7 0.00 0.00 0.00 59 1023.5
20260507142728 8 5 9.7 14.5 0.00 0.00 0.00 60 1023.5
20260507142224 8 41 9.7 11.3 0.00 0.00 0.00 62 1023.6
20260507141721 7 347 8.0 11.3 0.00 0.00 0.00 64 1023.6
20260507141218 7 22 9.7 14.5 0.00 0.00 0.00 65 1023.9
20260507140714 7 34 9.7 11.3 0.00 0.00 0.00 65 1023.8
20260507140212 7 36 6.4 9.7 0.00 0.00 0.00 67 1023.6
20260507135708 7 10 16.1 20.9 0.00 0.00 0.00 67 1023.8
20260507135206 7 51 9.7 14.5 0.00 0.00 0.00 68 1023.8
20260507134702 7 59 12.9 16.1 0.00 0.00 0.00 68 1023.8
20260507134158 6 29 9.7 12.9 0.00 0.00 0.00 70 1023.5
20260507133654 6 40 4.8 4.8 0.00 0.00 0.00 71 1023.6
20260507133152 6 50 17.7 24.1 0.00 0.00 0.00 72 1023.4
20260507132649 6 50 6.4 6.4 0.00 0.00 0.00 73 1023.4
20260507132145 5 37 9.7 11.3 0.00 0.00 0.00 75 1023.6
20260507131643 5 20 4.8 6.4 0.00 0.00 0.00 75 1023.5
20260507131140 5 9 4.8 6.4 0.00 0.00 0.00 75 1023.4
20260507130636 5 19 8.0 11.3 0.00 0.00 0.00 76 1023.4
20260507130134 5 280 6.4 9.7 0.00 0.00 0.00 76 1023.3
20260507125633 5 32 6.4 6.4 0.00 0.00 0.00 76 1023.6
20260507125130 4 64 6.4 6.4 0.00 0.00 0.00 78 1023.4
20260507124626 4 331 6.4 9.7 0.00 0.00 0.00 77 1023.4
20260507124124 4 9 9.7 11.3 0.00 0.00 0.00 77 1023.5
20260507123622 4 19 4.8 4.8 0.00 0.00 0.00 76 1023.4
20260507123118 4 13 12.9 16.1 0.00 0.00 0.00 76 1023.4
20260507122613 4 316 8.0 9.7 0.00 0.00 0.00 75 1023.2
20260507122110 4 70 3.2 3.2 0.00 0.00 0.00 75 1023.2
20260507121606 4 12 4.8 6.4 0.00 0.00 0.00 75 1023.2
20260507121102 4 337 6.4 9.7 0.00 0.00 0.00 75 1023.1
20260507120558 4 286 3.2 3.2 0.00 0.00 0.00 76 1023.2
20260507120055 4 0 4.8 9.7 0.00 0.00 0.00 75 1022.9
20260507115551 4 334 4.8 4.8 0.00 0.00 0.00 75 1023.2
20260507115047 4 1 6.4 6.4 0.00 0.00 0.00 74 1023.2
20260507114543 4 33 4.8 4.8 0.00 0.00 0.00 74 1023.2
20260507114041 5 47 4.8 6.4 0.00 0.00 0.00 73 1023.2
20260507113537 4 23 6.4 6.4 0.00 0.00 0.00 73 1022.9
20260507113035 4 23 3.2 4.8 0.00 0.00 0.00 72 1023.1
20260507112532 4 15 6.4 9.7 0.00 0.00 0.00 71 1022.9
20260507112029 5 17 4.8 4.8 0.00 0.00 0.00 69 1023.2
20260507111526 4 35 1.6 1.6 0.00 0.00 0.00 69 1023.2
20260507111022 5 174 1.6 1.6 0.00 0.00 0.00 66 1023.2
20260507110519 5 18 8.0 9.7 0.00 0.00 0.00 66 1022.9
20260507110016 5 20 9.7 11.3 0.00 0.00 0.00 67 1023.1
20260507105513 5 18 8.0 11.3 0.00 0.00 0.00 69 1022.9
20260507105009 5 53 1.6 3.2 0.00 0.00 0.00 68 1022.8
20260507104506 5 22 3.2 3.2 0.00 0.00 0.00 67 1023.1
20260507104002 5 62 3.2 4.8 0.00 0.00 0.00 67 1023.1
20260507103459 5 39 3.2 3.2 0.00 0.00 0.00 66 1023.1
20260507102955 5 47 6.4 6.4 0.00 0.00 0.00 67 1023.1
20260507102452 5 307 3.2 4.8 0.00 0.00 0.00 67 1022.8
20260507101948 5 22 3.2 4.8 0.00 0.00 0.00 67 1022.9
20260507101443 5 48 3.2 3.2 0.00 0.00 0.00 67 1022.9
20260507100940 5 239 3.2 4.8 0.00 0.00 0.00 67 1022.9
20260507100438 5 124 1.6 1.6 0.00 0.00 0.00 67 1022.9
20260507095936 5 171 1.6 1.6 0.00 0.00 0.00 67 1022.8
20260507095433 5 32 1.6 3.2 0.00 0.00 0.00 66 1022.8
20260507094930 5 45 6.4 9.7 0.00 0.00 0.00 66 1023.1
20260507094426 5 40 3.2 3.2 0.00 0.00 0.00 65 1022.9
20260507093923 5 60 1.6 3.2 0.00 0.00 0.00 65 1022.8
20260507093421 6 358 6.4 9.7 0.00 0.00 0.00 65 1022.7
20260507092919 6 329 3.2 4.8 0.00 0.00 0.00 64 1022.5
20260507092415 6 335 4.8 6.4 0.00 0.00 0.00 63 1022.7
20260507091912 6 28 4.8 4.8 0.00 0.00 0.00 61 1022.7
20260507091408 6 54 6.4 6.4 0.00 0.00 0.00 57 1022.8
20260507090904 6 15 3.2 3.2 0.00 0.00 0.00 50 1022.7
20260507090400 6 325 3.2 4.8 0.00 0.00 0.00 45 1022.7
20260507085857 6 189 0.0 1.6 0.00 0.00 0.00 42 1022.8
20260507085354 6 163 1.6 1.6 0.00 0.00 0.00 41 1022.7
20260507084851 6 206 1.6 3.2 0.00 0.00 0.00 40 1022.7
20260507084348 7 88 1.6 3.2 0.00 0.00 0.00 39 1022.6
20260507083845 7 36 3.2 4.8 0.00 0.00 0.00 38 1022.4
20260507083341 7 232 1.6 1.6 0.00 0.00 0.00 36 1022.5
20260507082838 8 173 0.0 1.6 0.00 0.00 0.00 34 1022.4
20260507082333 8 178 1.6 3.2 0.00 0.00 0.00 33 1022.5
20260507081831 9 128 3.2 3.2 0.00 0.00 0.00 32 1022.2
20260507081327 8 24 1.6 4.8 0.00 0.00 0.00 31 1022.4
20260507080823 8 86 3.2 3.2 0.00 0.00 0.00 32 1022.4
20260507080320 7 110 0.0 1.6 0.00 0.00 0.00 37 1022.4
20260507075815 7 154 0.0 0.0 0.00 0.00 0.00 36 1022.2
20260507075312 8 154 0.0 0.0 0.00 0.00 0.00 34 1022.1
20260507074808 8 154 1.6 1.6 0.00 0.00 0.00 33 1022.0
20260507074306 8 143 1.6 1.6 0.00 0.00 0.00 33 1022.2
20260507073803 9 144 0.0 0.0 0.00 0.00 0.00 32 1022.2
20260507073259 9 135 1.6 3.2 0.00 0.00 0.00 32 1022.1
20260507072757 9 34 3.2 4.8 0.00 0.00 0.00 32 1022.0
20260507072254 9 38 3.2 3.2 0.00 0.00 0.00 32 1021.8
20260507071752 9 51 4.8 4.8 0.00 0.00 0.00 32 1021.9
20260507071248 9 45 4.8 4.8 0.00 0.00 0.00 33 1021.8
20260507070745 9 108 0.0 1.6 0.00 0.00 0.00 34 1021.8
20260507070242 9 119 1.6 1.6 0.00 0.00 0.00 34 1021.8
20260507065738 9 117 1.6 1.6 0.00 0.00 0.00 34 1021.7
20260507065235 9 130 1.6 1.6 0.00 0.00 0.00 34 1021.9